Regional Weather Roundup
Issued by NWS

Home | Current Version | Previous Version | Graphics & Text | Print | Product List | Glossary On
Versions: 1 2 3 4 5 6 7 8 9 10 11 12 13 14 15 16 17 18 19 20 21 22 23 24 25 26 27 28 29 30 31 32 33 34 35 36 37 38 39 40 41 42 43 44 45 46 47 48 49 50
000
ASUS43 KFSD 251410
RWRSD

WEATHER ROUNDUP FOR SOUTH DAKOTA
NATIONAL WEATHER SERVICE SIOUX FALLS SD
800 AM CST SUN FEB 25 2018

NOTE: "FAIR" INDICATES FEW OR NO CLOUDS BELOW 12,000 FEET WITH NO
SIGNIFICANT WEATHER AND/OR OBSTRUCTIONS TO VISIBILITY.


SDZ001>005-009-010-012>017-251500-
NORTHWEST AND NORTH CENTRAL SOUTH DAKOTA

CITY           SKY/WX    TMP DP  RH WIND       PRES   REMARKS
BUFFALO          N/A     13   8  81 W13       29.61S WCI  -2
FAITH            N/A     14   9  80 W17       29.72S WCI  -3
MOBRIDGE       CLEAR     13   8  81 SW6       29.69R WCI   4
$$

SDZ012>016-024>037-041>051-057-063-072>074-251500-
SOUTHWEST AND SOUTH CENTRAL SOUTH DAKOTA

CITY           SKY/WX    TMP DP  RH WIND       PRES   REMARKS
RAPID CTY ARPT CLEAR     16   4  59 W12       29.75S WCI   3
PIERRE         CLEAR     17   9  70 N8        29.78S WCI   7
CUSTER         CLEAR     16   1  51 W8        29.67S WCI   5
ELLSWORTH AFB  CLEAR     11   2  66 W6        29.73S WCI   2
PHILIP         CLEAR      9   3  77 SW12      29.80R WCI  -6
PINE RIDGE     PTCLDY   N/A N/A N/A MISG      29.80R
SPEARFISH        N/A     23  12  63 W15       29.72S WCI  10
WINNER         FAIR      19   7  59 SW7       29.82R WCI  10
$$

SDZ004>011-016>023-039-040-251500-
NORTHEAST SOUTH DAKOTA

CITY           SKY/WX    TMP DP  RH WIND       PRES   REMARKS
ABERDEEN       CLEAR     15  12  88 SW8       29.69R WCI   4
WATERTOWN      CLOUDY    14  11  87 W16       29.66R WCI  -2
BROOKINGS      CLEAR     13   8  81 W17       29.72R WCI  -4
SISSETON         N/A     19  13  77 W23       29.63R WCI   2
$$

SDZ017-020-022-023-036>040-048>070-251500-
SOUTHEAST SOUTH DAKOTA

CITY           SKY/WX    TMP DP  RH WIND       PRES   REMARKS
SIOUX FALLS    PTCLDY    18  10  71 W13       29.77R WCI   5
HURON          CLOUDY    19  14  81 W12       29.78R WCI   7
CHAMBERLAIN    CLEAR     21  11  67 W15       29.81R WCI   7
MITCHELL       CLEAR     18  10  71 W12       29.81R WCI   5
YANKTON        PTCLDY    24  13  62 W13       29.84R WCI  12
$$

ABBREVIATIONS USED IN REMARKS
   TC - TEMPERATURE IN CELSIUS
  WCI - WIND CHILL INDEX
   HX - HEAT INDEX
  VSB - VISIBILITY





USA.gov is the U.S. government's official web portal to all federal, state and local government web resources and services.